CAPE
1 1 3 5 4 3 0 0 1 1 1 2 2 2 2 1 1 1 0 0 0 0 0 0 0 0 0 0 0 0 0 0 0 0 0 0 0 0 0 0 0 0 0
0 1 2 2 3 3 1 0 44 2 1 2 1 1 2 1 1 1 0 0 0 0 0 0 0 0 0 0 0 0 0 0 0 0 0 0 0 0 0 0 0 0 0
1 1 1 3 5 5 0 0 4 1 2 2 1 2 2 1 2 0 0 0 0 0 0 0 0 0 0 0 0 0 0 0 0 0 0 0 0 0 0 0 0 0 0
0 1 1 3 4 5 2 0 6 1 2 2 2 1 1 1 1 0 0 0 0 0 0 0 0 0 0 0 0 0 0 0 0 0 0 0 0 0 0 0 0 0 0
0 0 0 1 3 3 0 1 3 0 2 2 2 1 1 1 0 0 0 0 0 0 0 0 0 0 0 0 0 0 0 0 0 0 0 0 0 0 0 0 0 0 0
0 0 0 0 3 4 0 0 4 1 1 2 2 2 3 1 0 0 0 0 0 0 0 0 0 0 0 0 0 0 0 0 0 0 0 0 0 0 0 0 0 0 0
0 0 0 0 1 2 2 1 3 2 1 2 3 2 3 1 0 0 0 0 0 0 0 0 0 0 0 0 0 0 0 0 0 0 0 0 0 0 0 0 0 0 0
0 0 0 0 0 0 1 2 0 4 0 1 2 3 2 2 0 0 0 0 0 0 0 0 0 0 0 0 0 0 0 0 0 0 0 0 0 0 0 0 0 0 0
0 0 0 0 0 0 0 1 1 4 0 1 1 2 3 2 0 0 0 0 0 0 0 0 0 0 0 0 0 0 0 0 0 0 0 0 0 0 0 0 0 0 0
0 0 0 0 0 0 0 1 2 2 4 0 1 2 1 2 0 0 0 1 1 0 0 0 0 0 0 0 0 0 0 0 0 0 0 0 0 0 0 0 0 0 0
0 0 0 0 0 0 0 1 1 1 2 1 0 0 1 1 2 2 2 2 0 0 0 0 0 0 0 0 0 0 0 0 0 0 0 0 0 0 0 0 0 0 0
0 0 0 0 0 0 0 0 0 2 2 0 1 0 1 1 1 2 2 1 0 0 0 0 0 0 0 0 0 0 0 0 0 0 0 0 0 0 0 0 0 0 0
0 0 0 0 0 0 0 0 0 1 2 1 0 0 0 1 2 3 2 1 0 0 0 0 0 0 0 0 0 0 0 0 0 0 0 0 0 0 0 0 0 0 0
0 0 0 0 0 0 0 0 0 1 1 2 0 0 1 1 2 2 1 1 0 0 0 0 0 0 0 0 0 0 0 0 0 0 0 0 0 0 0 0 0 0 0
0 0 0 0 0 0 0 0 0 0 0 2 1 2 0 1 1 1 1 1 0 0 0 0 1 1 1 2 0 0 0 0 0 0 0 0 0 0 0 0 0 0 0
0 0 0 0 0 0 0 0 0 1 1 0 1 1 0 1 0 1 1 1 0 0 0 2 3 2 2 2 0 0 0 0 0 0 0 0 0 0 0 0 0 0 0
0 0 0 0 0 0 0 0 0 0 0 2 1 1 1 1 0 0 0 1 0 1 1 2 3 2 1 0 0 0 0 0 0 0 0 0 0 0 0 0 0 0 0
0 0 0 0 0 0 0 0 0 0 0 0 0 1 0 0 1 0 0 1 1 1 0 1 2 2 0 0 0 0 0 0 1 1 1 0 0 0 0 0 0 0 0
0 0 0 0 0 0 0 0 0 0 0 0 0 0 1 0 0 0 0 0 0 1 0 1 1 1 2 1 0 0 0 0 5 1 0 0 0 0 0 0 0 0 0
0 0 0 0 0 0 0 0 0 0 0 0 0 0 0 1 0 1 0 0 0 0 1 1 1 1 2 1 2 2 4 7 6 0 0 0 0 0 0 0 0 0 0
0 0 0 0 0 0 0 0 0 0 0 0 0 0 0 0 0 2 0 0 1 0 1 1 2 2 3 3 3 4 4 7 4 2 0 0 0 0 0 0 0 0 0
0 0 0 0 0 0 0 0 0 0 0 0 0 0 1 0 0 0 1 0 0 1 1 1 2 2 3 3 3 3 5 6 5 0 0 0 0 0 0 0 0 0 0
0 0 0 0 0 0 0 0 0 0 0 0 0 0 0 0 0 0 0 0 0 0 0 1 1 1 2 2 1 2 1 2 0 0 0 0 0 0 0 0 0 0 0
0 0 0 0 0 0 0 0 0 0 0 0 0 0 0 0 0 0 0 0 0 0 0 0 1 1 1 2 1 1 0 0 0 0 0 0 0 0 0 0 0 0 0
0 0 0 0 0 0 0 0 0 0 0 0 0 0 0 0 0 0 0 0 1 1 1 1 1 1 0 1 2 1 0 0 0 0 0 0 0 0 0 0 0 0 0
0 0 0 0 0 0 0 0 0 0 0 0 0 0 0 0 0 0 0 0 0 0 1 1 1 1 1 1 1 1 4 3 0 0 0 0 0 0 0 0 0 0 0
CIN
-0 -0 -0 -0 -0 -0 -0 -0 -0 -0 -0 -0 -0 -0 -0 -0 -0 -0 -0 -0 -0 -0 -0 -0 -0 -0 -0 -0 -0 -0 -0 -0 -0 -0 -0 -0 -0 -0 -0 -0 -0 -0 -0
-0 -0 -0 -0 -0 -0 -0 -0 -3 -12 -0 -0 -0 -0 -0 -0 -0 -0 -0 -0 -0 -0 -0 -0 -0 -0 -0 -0 -0 -0 -0 -0 -0 -0 -0 -0 -0 -0 -0 -0 -0 -0 -0
-0 -0 -0 -0 -0 -0 -0 -0 -5 -0 -0 -0 -0 -0 -0 -0 -0 -0 -0 -0 -0 -0 -0 -0 -0 -0 -0 -0 -0 -0 -0 -0 -0 -0 -0 -0 -0 -0 -0 -0 -0 -0 -0
-0 -0 -0 -0 -0 -0 -0 -0 -0 -0 -0 -0 -0 -0 -0 -0 -0 -0 -0 -0 -0 -0 -0 -0 -0 -0 -0 -0 -0 -0 -0 -0 -0 -0 -0 -0 -0 -0 -0 -0 -0 -0 -0
-0 -0 -0 -0 -0 -0 -0 -0 -0 -0 -0 -0 -0 -0 -0 -0 -0 -0 -0 -0 -0 -0 -0 -0 -0 -0 -0 -0 -0 -0 -0 -0 -0 -0 -0 -0 -0 -0 -0 -0 -0 -0 -0
-0 -0 -0 -0 -0 -0 -0 -0 -0 -0 -0 -0 -0 -0 -0 -0 -0 -0 -0 -0 -0 -0 -0 -0 -0 -0 -0 -0 -0 -0 -0 -0 -0 -0 -0 -0 -0 -0 -0 -0 -0 -0 -0
-0 -0 -0 -0 -0 -0 -0 -0 -0 -0 -0 -0 -0 -0 -0 -0 -0 -0 -0 -0 -0 -0 -0 -0 -0 -0 -0 -0 -0 -0 -0 -0 -0 -0 -0 -0 -0 -0 -0 -0 -0 -0 -0
-0 -0 -0 -0 -0 -0 -0 -0 -0 -0 -0 -0 -0 -0 -0 -0 -0 -0 -0 -0 -0 -0 -0 -0 -0 -0 -0 -0 -0 -0 -0 -0 -0 -0 -0 -0 -0 -0 -0 -0 -0 -0 -0
-0 -0 -0 -0 -0 -0 -0 -0 -0 -0 -0 -0 -0 -0 -0 -0 -0 -0 -0 -0 -0 -0 -0 -0 -0 -0 -0 -0 -0 -0 -0 -0 -0 -0 -0 -0 -0 -0 -0 -0 -0 -0 -0
-0 -0 -0 -0 -0 -0 -0 -0 -0 -0 -0 -0 -0 -0 -0 -0 -0 -0 -0 -0 -0 -0 -0 -0 -0 -0 -0 -0 -0 -0 -0 -0 -0 -0 -0 -0 -0 -0 -0 -0 -0 -0 -0
-0 -0 -0 -0 -0 -0 -0 -0 -0 -0 -0 -0 -0 -0 -0 -0 -0 -0 -0 -0 -0 -0 -0 -0 -0 -0 -0 -0 -0 -0 -0 -0 -0 -0 -0 -0 -0 -0 -0 -0 -0 -0 -0
-0 -0 -0 -0 -0 -0 -0 -0 -0 -0 -0 -0 -0 -0 -0 -0 -0 -0 -0 -0 -0 -0 -0 -0 -0 -0 -0 -0 -0 -0 -0 -0 -0 -0 -0 -0 -0 -0 -0 -0 -0 -0 -0
-0 -0 -0 -0 -0 -0 -0 -0 -0 -0 -0 -0 -0 -0 -0 -0 -0 -0 -0 -0 -0 -0 -0 -0 -0 -0 -0 -0 -0 -0 -0 -0 -0 -0 -0 -0 -0 -0 -0 -0 -0 -0 -0
-0 -0 -0 -0 -0 -0 -0 -0 -0 -0 -0 -0 -0 -0 -0 -0 -0 -0 -0 -0 -0 -0 -0 -0 -0 -0 -0 -0 -0 -0 -0 -0 -0 -0 -0 -0 -0 -0 -0 -0 -0 -0 -0
-0 -0 -0 -0 -0 -0 -0 -0 -0 -0 -0 -0 -0 -0 -0 -0 -0 -0 -0 -0 -0 -0 -0 -0 -0 -0 -0 -0 -0 -0 -0 -0 -0 -0 -0 -0 -0 -0 -0 -0 -0 -0 -0
-0 -0 -0 -0 -0 -0 -0 -0 -0 -0 -0 -0 -0 -0 -0 -0 -0 -0 -0 -0 -0 -0 -0 -0 -0 -0 -0 -0 -0 -0 -0 -0 -0 -0 -0 -0 -0 -0 -0 -0 -0 -0 -0
-0 -0 -0 -0 -0 -0 -0 -0 -0 -0 -0 -0 -0 -0 -0 -0 -0 -0 -0 -0 -0 -0 -0 -0 -0 -0 -0 -0 -0 -0 -0 -0 -0 -0 -0 -0 -0 -0 -0 -0 -0 -0 -0
-0 -0 -0 -0 -0 -0 -0 -0 -0 -0 -0 -0 -0 -0 -0 -0 -0 -0 -0 -0 -0 -0 -0 -0 -0 -0 -0 -0 -0 -0 -0 -0 -0 -0 -0 -0 -0 -0 -0 -0 -0 -0 -0
-0 -0 -0 -0 -0 -0 -0 -0 -0 -0 -0 -0 -0 -0 -0 -0 -0 -0 -0 -0 -0 -0 -0 -0 -0 -0 -0 -0 -0 -0 -0 -0 -0 -0 -0 -0 -0 -0 -0 -0 -0 -0 -0
-0 -0 -0 -0 -0 -0 -0 -0 -0 -0 -0 -0 -0 -0 -0 -0 -0 -0 -0 -0 -0 -0 -0 -0 -0 -0 -0 -0 -0 -0 -0 -0 -0 -0 -0 -0 -0 -0 -0 -0 -0 -0 -0
-0 -0 -0 -0 -0 -0 -0 -0 -0 -0 -0 -0 -0 -0 -0 -0 -0 -0 -0 -0 -0 -0 -0 -0 -0 -0 -0 -0 -0 -0 -0 -0 -0 -0 -0 -0 -0 -0 -0 -0 -0 -0 -0
-0 -0 -0 -0 -0 -0 -0 -0 -0 -0 -0 -0 -0 -0 -0 -0 -0 -0 -0 -0 -0 -0 -0 -0 -0 -0 -0 -0 -0 -0 -0 -0 -0 -0 -0 -0 -0 -0 -0 -0 -0 -0 -0
-0 -0 -0 -0 -0 -0 -0 -0 -0 -0 -0 -0 -0 -0 -0 -0 -0 -0 -0 -0 -0 -0 -0 -0 -0 -0 -0 -0 -0 -0 -0 -0 -0 -0 -0 -0 -0 -0 -0 -0 -0 -0 -0
-0 -0 -0 -0 -0 -0 -0 -0 -0 -0 -0 -0 -0 -0 -0 -0 -0 -0 -0 -0 -0 -0 -0 -0 -0 -0 -0 -0 -0 -0 -0 -0 -0 -0 -0 -0 -0 -0 -0 -0 -0 -0 -0
-0 -0 -0 -0 -0 -0 -0 -0 -0 -0 -0 -0 -0 -0 -0 -0 -0 -0 -0 -0 -0 -0 -0 -0 -0 -0 -0 -0 -0 -0 -0 -0 -0 -0 -0 -0 -0 -0 -0 -0 -0 -0 -0
-0 -0 -0 -0 -0 -0 -0 -0 -0 -0 -0 -0 -0 -0 -0 -0 -0 -0 -0 -0 -0 -0 -0 -0 -0 -0 -0 -0 -0 -0 -0 -0 -0 -0 -0 -0 -0 -0 -0 -0 -0 -0 -0
Wind_Speed
41 43 46 47 49 51 52 47 43 39 42 42 40 39 37 35 32 31 30 28 31 29 31 30 26 22 22 19 20 19 23 22 23 20 18 19 19 19 17 18 17 18 19
40 41 41 44 46 50 51 47 47 43 43 43 41 40 40 37 35 34 34 32 30 27 26 25 25 23 22 21 20 20 21 22 23 21 19 18 17 19 19 19 19 20 21
37 38 38 41 46 50 48 45 50 45 45 45 43 42 40 40 38 37 34 32 31 30 29 28 26 23 24 23 23 20 17 16 20 19 19 19 18 16 18 19 19 21 21
35 36 39 40 43 47 45 44 48 49 47 46 44 43 41 40 39 38 36 34 33 31 30 30 28 26 26 26 25 21 18 18 14 18 20 20 19 19 19 18 20 20 21
35 36 37 40 41 43 41 43 48 47 46 48 46 44 41 41 41 39 36 33 32 30 29 29 30 29 29 27 26 23 20 20 20 21 22 22 22 22 19 20 21 22 24
33 34 36 37 39 39 36 43 44 48 45 45 45 44 43 43 41 39 36 34 33 32 31 29 28 28 28 26 26 25 24 22 23 22 21 23 25 20 16 17 20 23 26
31 32 35 37 39 36 36 39 43 47 48 46 44 43 44 43 40 39 37 35 34 34 32 30 30 28 27 28 28 26 26 24 22 21 20 23 19 14 14 20 22 23 26
29 29 32 35 35 34 35 36 40 42 44 45 43 44 44 43 41 39 37 36 36 35 33 31 30 30 30 28 27 27 28 26 23 22 22 24 23 16 17 20 21 24 25
30 31 32 33 33 34 34 35 39 40 41 44 45 42 43 43 41 40 38 37 37 36 35 33 32 31 29 28 28 27 26 25 23 24 23 23 20 18 17 19 21 24 28
31 32 32 33 33 33 30 34 36 39 43 43 42 44 43 42 40 38 38 38 39 38 36 34 32 31 29 28 30 29 28 26 24 23 24 22 20 18 16 20 21 24 24
32 32 31 31 31 29 31 35 36 39 41 44 42 42 42 40 39 38 38 39 38 37 36 35 34 32 29 29 30 30 30 26 25 23 23 22 20 19 19 20 18 18 20
32 32 32 30 31 30 31 31 34 37 40 43 42 39 44 40 41 40 39 39 40 39 38 37 35 31 29 29 30 31 28 25 24 23 22 21 19 19 19 16 15 16 18
30 30 30 29 28 29 27 30 30 32 37 39 40 40 42 41 43 42 40 41 37 37 38 35 33 31 30 30 31 29 27 26 25 24 23 21 20 17 13 11 12 14 16
30 30 30 29 29 27 26 26 26 29 33 36 39 43 42 42 42 41 40 39 37 36 35 35 33 32 30 30 29 28 28 26 26 25 23 20 16 13 12 12 12 13 17
30 30 29 28 28 26 26 26 26 28 30 36 42 43 42 46 44 41 39 39 38 35 31 30 29 29 28 28 27 28 27 25 25 23 21 18 15 13 12 11 13 14 18
30 30 29 28 26 28 28 26 26 26 28 31 35 40 42 41 40 39 37 36 36 33 32 33 33 31 30 28 29 28 26 24 23 21 19 17 15 13 12 12 12 15 14
30 30 29 28 28 27 28 28 28 29 28 29 32 35 39 42 40 36 35 34 34 32 35 34 33 32 29 29 28 27 27 25 22 21 19 17 15 13 11 11 11 10 12
30 29 30 29 28 28 29 27 29 30 31 30 30 32 36 40 39 38 34 31 34 35 36 35 34 33 31 30 29 28 26 26 24 21 19 17 15 14 12 10 8 8 10
30 30 30 30 29 30 29 30 31 30 30 30 30 30 31 37 37 37 35 36 35 36 34 34 33 32 32 30 29 28 25 24 24 22 20 18 16 13 11 8 7 7 8
30 29 29 29 29 29 29 30 30 30 30 30 29 30 31 33 37 38 37 39 37 34 34 33 33 32 31 30 28 29 26 26 25 22 20 18 16 13 10 7 6 4 5
30 30 30 29 29 29 30 29 29 29 29 29 27 29 31 33 36 36 36 38 36 36 34 32 30 29 27 27 28 29 29 28 26 23 20 17 14 11 8 6 4 3 3
30 31 30 29 29 29 29 28 27 28 26 26 26 27 27 27 28 30 32 35 35 32 31 29 28 27 26 26 26 25 25 25 25 22 19 16 13 10 7 5 4 2 3
31 30 30 29 29 29 28 27 26 26 26 26 26 25 25 25 26 29 30 30 32 31 31 30 30 30 30 27 26 24 24 24 22 20 17 15 12 9 8 6 5 2 2
30 30 30 29 28 27 27 27 26 25 26 25 25 24 23 24 25 26 29 30 31 30 29 28 29 28 27 26 25 24 23 22 20 18 17 15 11 9 8 7 5 2 2
29 29 29 28 28 27 27 26 26 25 25 24 24 24 23 22 22 24 25 27 27 28 28 26 27 27 27 26 25 24 23 22 20 18 16 13 12 10 8 6 4 2 2
28 28 28 27 27 27 26 26 26 25 24 24 23 22 22 21 21 21 22 24 25 25 26 25 26 26 25 25 24 23 23 22 20 18 16 13 12 9 8 7 5 2 2
Wind_Direction
256 254 251 245 244 243 239 242 240 235 232 231 229 228 228 229 227 228 233 230 235 237 245 244 243 237 222 234 251 259 265 271 275 285 285 283 286 269 276 286 293 298 305
259 257 254 249 244 240 237 240 241 237 235 232 231 229 229 230 229 231 233 234 234 233 238 239 235 235 231 232 243 251 261 269 273 274 280 283 289 279 278 285 292 299 304
262 261 258 253 244 241 238 242 242 234 231 231 231 230 229 230 231 232 234 235 236 235 239 240 237 232 233 230 243 247 253 262 274 271 277 284 291 286 284 289 294 299 305
263 259 253 253 247 243 241 243 244 238 233 229 230 230 230 230 231 232 233 237 239 241 241 243 240 233 232 238 240 243 248 257 267 274 276 279 285 287 288 290 294 303 309
266 259 257 256 251 247 242 247 243 238 231 230 230 230 230 231 231 230 232 236 236 238 241 244 244 241 240 236 237 238 242 251 259 269 272 275 278 282 284 292 296 304 310
266 264 263 260 253 250 245 249 245 239 234 231 227 228 230 232 230 229 231 235 237 237 238 242 245 240 238 233 234 239 241 248 255 259 260 269 274 281 286 291 297 304 307
271 264 265 258 250 248 251 251 247 241 233 233 227 228 230 231 229 229 230 236 236 238 240 242 243 244 238 239 242 241 242 248 251 256 257 265 270 268 281 290 296 303 306
273 271 268 260 253 251 256 254 250 244 239 233 231 229 230 231 229 228 229 236 239 240 240 240 244 242 241 242 239 239 241 245 250 258 264 270 277 275 281 291 297 301 309
277 274 275 266 257 254 255 258 251 245 239 231 232 228 230 231 229 228 229 236 240 241 242 242 244 245 241 236 238 234 239 246 252 257 267 272 274 280 281 293 297 300 305
279 276 275 270 263 259 264 261 255 246 239 236 233 232 233 232 229 226 227 234 240 243 244 245 241 243 239 232 235 236 239 242 243 253 262 268 274 279 281 291 294 299 307
280 277 274 273 267 267 268 261 253 243 239 234 233 231 234 233 232 227 228 235 239 240 243 242 244 241 237 236 236 240 241 244 245 247 253 262 271 277 286 295 300 305 310
284 281 278 273 265 264 264 265 256 247 240 238 233 233 233 236 236 231 229 235 238 239 242 246 246 238 236 236 235 242 242 239 240 242 248 255 263 273 284 296 306 316 318
282 279 272 268 268 263 266 264 258 254 244 242 240 238 235 236 237 235 233 233 238 242 245 245 244 238 240 241 237 238 232 236 237 239 245 253 263 270 280 291 310 321 321
281 278 275 273 271 269 270 273 267 261 252 245 240 238 238 236 237 236 236 236 239 241 245 244 243 242 241 240 234 231 235 235 234 238 247 254 258 259 263 283 296 301 311
280 277 273 273 272 273 276 275 269 265 258 251 244 240 238 237 238 238 234 235 237 237 239 240 239 238 235 230 228 231 232 233 236 242 244 242 243 246 262 277 286 299 310
280 275 273 275 280 270 266 272 276 275 271 262 252 246 246 246 240 237 234 235 232 229 235 236 235 233 227 223 224 227 231 230 233 236 236 234 234 243 252 270 285 301 310
280 278 270 270 270 271 267 263 266 267 265 258 252 251 245 240 239 236 233 231 228 225 234 233 231 228 226 221 222 225 226 231 232 233 232 233 236 239 243 263 284 299 313
273 273 274 271 269 270 268 264 260 260 260 258 258 255 245 240 240 237 230 226 227 227 231 230 229 229 224 223 224 225 228 229 229 228 227 229 230 231 242 259 270 291 311
279 276 278 275 270 271 270 265 262 263 262 257 256 253 253 244 243 238 232 228 228 227 228 228 229 227 227 224 224 225 224 221 221 221 224 229 228 231 242 249 267 293 315
277 278 279 276 271 269 269 266 263 261 261 259 255 253 256 248 239 236 232 229 228 226 227 227 228 229 228 225 221 224 224 221 221 224 225 221 226 230 227 238 262 286 318
272 276 274 270 267 265 265 265 266 266 264 258 261 260 259 250 241 237 231 228 223 223 224 225 226 226 223 217 218 224 223 220 218 218 214 216 217 218 230 242 255 296 329
275 273 270 268 267 265 266 268 269 266 269 265 263 259 262 254 245 235 230 224 222 222 222 223 223 220 215 210 210 210 209 207 208 208 209 211 212 216 224 224 240 269 331
275 271 267 267 266 265 267 269 270 268 269 267 266 264 263 256 246 234 229 226 223 223 224 223 223 223 221 217 214 208 200 198 196 194 196 201 205 212 215 213 215 237 329
274 270 267 266 268 266 268 268 270 269 268 267 269 266 265 260 249 240 231 227 226 226 226 223 222 219 218 216 213 212 209 204 198 197 190 190 201 203 208 210 214 214 332
272 270 267 266 264 267 266 267 267 268 268 267 268 263 262 262 254 243 236 230 229 226 224 222 221 216 213 212 211 209 204 196 195 190 194 192 189 188 196 200 196 230 331
271 268 267 267 264 266 265 265 265 266 267 265 265 264 259 257 254 248 241 233 229 227 225 224 219 214 210 210 207 200 196 190 191 190 191 186 185 190 192 192 194 236 321